Tracking 23611 objects as of 18-Sep-2021
HD Live streaming from Space Station
objects crossing your sky now
Track INSPIRATION-4

SBS 3

Track SBS 3 now!
SBS 3 is classified as:


NORAD ID: 13651
Int'l Code: 1982-110B
Perigee: 35,851.2 km
Apogee: 35,935.1 km
Inclination: 14.3 °
Period: 1,441.2 minutes
Semi major axis: 42264 km
RCS: 15.8489 m2 (large)
Launch date: November 11, 1982
Source: United States (US)
Launch site: AIR FORCE EASTERN TEST RANGE (AFETR)
aabbcc
Your satellite tracking list
Your tracking list is empty




NASA's NSSDC Master Catalog

Two Line Element Set (TLE):
1 13651U 82110B   21260.97867587  .00000009  00000-0  00000-0 0  9995
2 13651  14.2952 347.6134 0009926  85.9021 343.2057  0.99918099 29223
Source of the keplerian elements: AFSPC